Location: Yucca Valley
(34.1140°N, 116.4310°W)
Time: 18:16:44
(UTC-07:00)

Daily predictions for brighter satellites

Satellite Brightness Start Highest point End
(mag) Time Altitude Azimuth Time Altitude Azimuth Time Altitude Azimuth
Meteor 1-13 Rocket 4.4 20:06:12 10° S 20:12:06 70° E 20:17:57 10° NNE
Cosmos 1536 Rocket 3.7 20:09:45 10° S 20:14:03 80° W 20:18:24 10° N
Cosmos 1975 3.4 20:12:55 10° NNW 20:16:57 64° W 20:21:00 10° S
Iridium 4 Rocket 4.1 20:13:18 10° N 20:18:38 68° W 20:24:20 10° S
Cosmos 1025 Rocket 4.0 20:15:39 10° SSE 20:19:15 27° E 20:22:52 10° NNE
Okean 1-7 Rocket 4.4 20:16:04 10° SSE 20:20:03 33° E 20:24:06 10° NNE
DNEPR-1 R/B 3.8 20:16:18 10° NNW 20:20:36 62° ENE 20:25:24 10° SE
Cosmos 2112 Rocket 4.3 20:21:26 10° SSW 20:26:38 75° WNW 20:31:50 10° NNE
SL-27 R/B 3.1 20:23:37 10° SSW 20:27:13 64° WNW 20:30:51 10° N
Spot 2 Rocket 3.6 20:24:50 10° SSE 20:29:52 83° WSW 20:34:56 10° NNW
Cosmos 1943 Rocket 4.2 20:27:21 10° NW 20:31:49 25° WSW 20:36:15 10° SSW
USA 186 1.6 20:29:10 10° SSE 20:32:20 84° ENE 20:35:24 10° N
Cosmos 1437 Rocket 4.3 20:31:30 10° NNE 20:34:24 20° ENE 20:36:51 12° ESE
ALOS 4.4 20:30:32 10° SSW 20:34:24 26° W 20:38:18 10° NW
GENESIS II 4.3 20:30:56 10° NNW 20:34:52 75° WSW 20:38:42 10° SSE
Meteor 2-4 Rocket 3.7 20:30:43 10° S 20:36:20 75° E 20:42:09 10° NNE
CZ-4B DEB 3.7 20:36:55 13° SE 20:39:05 28° ENE 20:41:42 10° NNE
Cosmos 1939 Rocket 3.3 20:36:23 10° SE 20:39:58 41° ENE 20:43:38 10° N
Hubble Space Telescope 2.0 20:37:31 10° SW 20:40:53 24° SSE 20:43:26 14° ESE
GPS 2-04 Rocket1 4.0 20:42:16 10° S 20:44:24 16° SSE 20:44:55 15° SE
Envisat 3.0 20:47:15 10° SSE 20:52:19 82° ENE 20:57:25 10° N
Cosmos 1441 Rocket 3.7 20:49:26 10° SSW 20:53:06 60° W 20:56:48 10° N
Cosmos 2056 Rocket 3.9 20:51:46 10° N 20:56:41 45° ENE 21:00:07 18° SE
SAR-Lupe-4 3.5 20:55:12 15° SSE 20:58:02 69° ENE 21:01:37 10° N
SJ-11-01 4.2 20:59:58 12° SSE 21:04:20 88° ENE 21:09:04 10° NNW
YAOGAN 6 2.7 21:05:28 24° SE 21:07:19 54° ENE 21:10:45 10° N
Helios 1A 3.3 21:04:45 11° S 21:08:47 67° WSW 21:12:58 10° NNW
SAR-Lupe-1 4.0 21:11:55 21° S 21:14:12 83° WSW 21:17:48 10° NNW
Resurs 01 Rocket 4.0 21:10:58 10° SW 21:14:17 21° W 21:17:38 10° NW
OAO 2 Rocket 3.2 21:10:09 10° W 21:15:03 72° SSW 21:17:50 26° ESE
Cosmos 2181 Rocket 4.2 21:09:55 13° SSE 21:15:32 54° E 21:21:38 10° NNE
COSMOS 2487 2.3 21:12:03 10° SSW 21:15:36 82° ESE 21:19:11 10° NNE
CRYOSAT 2 4.3 21:13:10 15° S 21:17:07 83° E 21:21:59 10° N
Cosmos 405 3.7 21:14:12 10° NNW 21:17:39 51° W 21:20:16 16° SSW
Helios 1B rocket 4.1 21:18:46 10° N 21:22:33 36° WNW 21:26:20 10° SW
Meteor 2-19 Rocket 4.5 21:17:58 10° N 21:24:04 67° E 21:28:00 23° SSE
OE (NEXTSAT) 4.4 21:20:30 10° NW 21:24:05 75° NNE 21:25:10 41° ESE
Cosmos 2082 Rocket 2.1 21:18:34 10° SSW 21:24:12 72° ESE 21:29:51 10° NNE
ERS-1 Rocket 3.0 21:21:26 26° SSE 21:24:16 66° ENE 21:29:16 10° N
Cosmos 921 Rocket 3.2 21:20:07 10° N 21:24:29 56° ENE 21:26:09 34° SE
Cosmos 2228 3.8 21:21:07 10° NNE 21:25:01 34° E 21:25:55 31° ESE
PSLV R/B 3.4 21:24:10 10° WNW 21:27:12 48° SSW 21:27:31 46° S
Cosmos 1452 Rocket 4.3 21:23:32 10° N 21:28:22 35° ENE 21:30:11 27° ESE
Cosmos 2278 3.7 21:25:45 10° NNW 21:31:26 66° ENE 21:34:07 32° SE
Cosmos 962 Rocket 4.4 21:28:39 10° N 21:34:53 79° E 21:38:35 26° SSE
ASTEX 1 3.9 21:32:41 14° S 21:36:44 57° W 21:41:33 10° NNW
Cosmos 1656 3.9 21:32:52 10° N 21:38:12 51° ENE 21:40:12 34° ESE
SPOT 1/Viking Rocket 4.3 21:39:42 30° ESE 21:41:03 35° ENE 21:45:43 10° N
Cosmos 1697 Rocket 3.4 21:38:50 10° N 21:44:05 40° ENE 21:45:47 32° ESE
Tiangong 2 3.6 21:42:50 10° NW 21:45:09 18° N 21:46:43 14° NE
MetOp-A 4.1 21:43:03 35° SSE 21:45:25 80° ENE 21:50:47 10° N
Cosmos 1892 Rocket 4.2 21:42:48 15° SSW 21:46:20 55° W 21:50:41 10° N
CZ-3B Rocket 4.1 21:46:30 10° SW 22:07:52 - ESE 21:50:49 27° SSE
Cosmos 1602 Rocket 3.8 21:51:11 46° E 21:51:11 46° E 21:55:17 10° NNE
SL-8 Rocket 4.0 21:45:25 10° N 21:51:40 64° E 21:54:04 38° SSE
Cosmos 2369 3.7 21:46:45 10° NNW 21:52:29 82° WSW 21:54:44 38° SSE
Cosmos 468 4.4 21:49:37 27° S 21:52:34 80° ESE 21:57:51 10° NNE
Cosmos 1833 Rocket 3.0 21:49:11 10° SSW 21:54:44 66° WNW 22:00:21 10° NNE
Cosmos 158 Rocket 4.1 21:54:43 47° SE 21:55:36 52° ESE 22:00:49 10° NNE
Cosmos 2366 rocket 4.2 21:53:11 10° N 21:59:10 52° E 22:00:43 42° SE
MOS 1-B Rocket 4.2 22:06:52 33° S 22:09:30 64° W 22:15:55 10° NNW
Terra 2.7 22:17:37 35° ENE 22:17:37 35° ENE 22:21:41 10° N
Cosmos 1959 Rocket 4.4 22:12:56 10° N 22:19:18 89° ENE 22:21:08 50° S
Hubble Space Telescope 3.0 22:17:53 10° WSW 22:18:50 16° WSW 22:18:50 16° WSW
Cosmos 1809 Rocket 4.3 22:16:35 10° N 22:22:41 89° E 22:24:06 56° S
ARGOS 3.6 22:25:02 43° SSW 22:26:26 55° W 22:31:46 10° NNW
SL-08 RB Rocket 3.9 22:26:23 60° WSW 22:26:34 61° W 22:31:00 10° NNW
SL-19 R/B 4.4 22:22:15 10° NNE 22:26:46 50° ENE 22:26:46 50° ENE
H-2A R/B 1.8 22:28:03 79° SSW 22:28:21 85° WSW 22:33:26 10° NNW
Cosmos 1980 Rocket 2.2 22:28:16 10° NNW 22:33:53 63° ENE 22:34:08 62° E
SPOT 5 3.6 22:35:07 38° WSW 22:35:18 38° W 22:39:22 10° NNW
Meteor 2-16 Rocket 4.3 22:33:06 10° N 22:39:16 77° E 22:39:51 70° SE
H-2A R/B 2.8 22:42:43 50° NNE 22:42:43 50° NNE 22:46:19 10° N
Meteor 1-4 Rocket 4.5 22:39:27 10° NNW 22:41:40 27° WNW 22:41:40 27° WNW
Cosmos 2218 Rocket 4.4 22:38:05 10° NNW 22:44:05 55° W 22:45:43 43° SW
Cosmos 1953 4.3 22:41:01 10° NNE 22:42:56 23° NNE 22:42:56 23° NNE
Cosmos 2322 Rocket 3.5 22:41:34 10° N 22:46:22 27° ENE 22:46:33 27° ENE
Cosmos 1812 Rocket 4.2 22:44:30 10° NNW 22:48:09 56° NW 22:48:09 56° NW
Lacrosse 5 2.7 22:51:07 41° NE 22:51:07 41° NE 22:54:24 10° NE
Cosmos 1420 Rocket 4.4 22:48:23 10° NNW 22:53:21 52° W 22:53:21 52° W
Nadezhda 3 Rocket 4.0 23:04:16 70° SW 23:04:52 76° W 23:11:15 10° N
Lacrosse 5 rocket 3.6 23:02:28 10° N 23:05:59 21° NE 23:05:59 21° NE
USA 267 4.1 23:08:53 10° NE 23:12:39 34° ENE 23:12:39 34° ENE
Cosmos 1821 Rocket 4.0 23:15:52 10° N 23:21:50 76° NE 23:21:50 76° NE
NOSS 3-1 (C) 4.2 23:16:32 10° NNW 23:24:15 63° ENE 23:25:35 56° E
Cosmos 1697 Rocket 4.4 23:23:27 10° NW 23:27:31 23° W 23:27:31 23° W
Cosmos 2251 Rocket 4.2 23:35:02 52° NNW 23:35:02 52° NNW 23:39:23 10° N
SL-16 R/B 2.7 23:34:48 10° NNW 23:39:17 56° N 23:39:17 56° N
Cosmos 1605 Rocket 4.4 23:39:01 10° N 23:44:02 54° NE 23:44:02 54° NE
USA 229 4.5 23:45:11 10° NW 23:51:20 42° WSW 23:51:20 42° WSW
Terra 4.1 23:56:30 17° WNW 23:56:30 17° WNW 23:58:32 10° NW
